Time,TemperatureF,DewpointF,PressureIn,WindDirection,WindDirectionDegrees,WindSpeedMPH,WindSpeedGustMPH,Humidity,HourlyPrecipIn,Conditions,Clouds,dailyrainin,SoftwareType,DateUTC
2013-10-06 00:17:00,42.6,32.8,29.82,WSW,247,0.0,6.9,68,0.00,,,0.00,open2300-1.11,2013-10-06 05:17:00,
2013-10-06 01:17:00,42.1,33.4,29.82,WSW,247,0.0,9.2,71,0.00,,,0.00,open2300-1.11,2013-10-06 06:17:00,
2013-10-06 02:17:00,42.4,33.8,29.81,West,270,4.0,13.9,71,0.00,,,0.00,open2300-1.11,2013-10-06 07:17:00,
2013-10-06 03:17:00,43.0,34.6,29.81,West,270,1.1,10.7,72,0.00,,,0.00,open2300-1.11,2013-10-06 08:17:00,
2013-10-06 04:17:00,42.4,35.7,29.82,West,270,5.1,8.9,77,0.00,,,0.00,open2300-1.11,2013-10-06 09:17:00,
2013-10-06 05:17:00,42.4,36.7,29.83,NW,315,6.7,15.4,80,0.00,,,0.00,open2300-1.11,2013-10-06 10:17:00,
2013-10-06 06:17:00,42.6,36.2,29.84,West,270,3.1,10.7,78,0.00,,,0.00,open2300-1.11,2013-10-06 11:17:00,
2013-10-06 07:17:00,43.5,36.1,29.86,WSW,247,4.0,9.8,75,0.00,,,0.00,open2300-1.11,2013-10-06 12:17:00,
2013-10-06 08:17:00,43.9,37.1,29.87,WNW,292,2.9,8.3,77,0.00,,,0.00,open2300-1.11,2013-10-06 13:17:00,
2013-10-06 09:17:00,44.4,38.7,29.89,NNW,337,5.1,8.9,80,0.00,,,0.00,open2300-1.11,2013-10-06 14:17:00,
2013-10-06 10:17:00,46.4,40.0,29.89,WNW,292,2.5,10.1,78,0.00,,,0.00,open2300-1.11,2013-10-06 15:17:00,
2013-10-06 11:17:00,47.1,39.6,29.90,West,270,5.6,11.0,75,0.00,,,0.00,open2300-1.11,2013-10-06 16:17:00,
2013-10-06 12:17:00,48.6,39.9,29.90,WNW,292,4.7,11.4,72,0.00,,,0.00,open2300-1.11,2013-10-06 17:17:00,
2013-10-06 13:17:00,49.8,40.1,29.90,NNW,337,6.0,12.3,69,0.00,,,0.00,open2300-1.11,2013-10-06 18:17:00,
2013-10-06 14:17:00,48.9,38.8,29.90,WNW,292,6.0,13.6,68,0.00,,,0.00,open2300-1.11,2013-10-06 19:17:00,
2013-10-06 15:17:00,50.4,39.8,29.90,NW,315,5.8,16.1,67,0.00,,,0.00,open2300-1.11,2013-10-06 20:17:00,
2013-10-06 16:17:00,51.6,41.0,29.91,North,0,0.4,10.3,67,0.00,,,0.00,open2300-1.11,2013-10-06 21:17:00,
2013-10-06 17:17:00,54.1,43.0,29.90,NW,315,0.0,8.1,66,0.00,,,0.00,open2300-1.11,2013-10-06 22:17:00,
2013-10-06 18:17:00,57.6,41.0,29.93,WNW,292,5.4,9.6,54,0.00,,,0.00,open2300-1.11,2013-10-06 23:17:00,
2013-10-06 19:17:00,56.3,34.5,29.95,NW,315,5.4,9.6,44,0.00,,,0.00,open2300-1.11,2013-10-07 00:17:00,
2013-10-06 20:17:00,53.6,32.6,29.96,WNW,292,3.4,5.6,45,0.00,,,0.00,open2300-1.11,2013-10-07 01:17:00,
2013-10-06 21:17:00,51.4,32.4,29.99,NW,315,0.0,6.3,48,0.00,,,0.00,open2300-1.11,2013-10-07 02:17:00,
2013-10-06 22:17:00,48.0,31.6,30.01,NW,315,0.0,0.0,53,0.00,,,0.00,open2300-1.11,2013-10-07 03:17:00,
2013-10-06 23:17:00,45.7,31.7,30.01,NW,315,0.0,0.0,58,0.00,,,0.00,open2300-1.11,2013-10-07 04:17:00,